owner,sensor,date,latitude,longitude,vertical_datum,sea_water_temperature,qcFlag 
TABS,ioos:station:wmo:42044:1,2001-07-01T00:00:00Z,26.1914,-97.0507,-2.0,27.92,11111222 
TABS,ioos:station:wmo:42044:1,2001-07-01T00:30:00Z,26.1914,-97.0507,-2.0,27.89,11111222 
TABS,ioos:station:wmo:42044:1,2001-07-01T01:00:00Z,26.1914,-97.0507,-2.0,27.89,11111222 
TABS,ioos:station:wmo:42044:1,2001-07-01T01:30:00Z,26.1914,-97.0507,-2.0,27.89,11111222 
TABS,ioos:station:wmo:42044:1,2001-07-01T02:00:00Z,26.1914,-97.0507,-2.0,27.91,11111222 
TABS,ioos:station:wmo:42044:1,2001-07-01T02:30:00Z,26.1914,-97.0507,-2.0,27.96,11111222 
TABS,ioos:station:wmo:42044:1,2001-07-01T03:00:00Z,26.1914,-97.0507,-2.0,27.95,11111222 
TABS,ioos:station:wmo:42044:1,2001-07-01T03:30:00Z,26.1914,-97.0507,-2.0,27.97,11111222 
TABS,ioos:station:wmo:42044:1,2001-07-01T04:00:00Z,26.1914,-97.0507,-2.0,28.0,11111222 
TABS,ioos:station:wmo:42044:1,2001-07-01T04:30:00Z,26.1914,-97.0507,-2.0,27.97,11111222 
TABS,ioos:station:wmo:42044:1,2001-07-01T05:00:00Z,26.1914,-97.0507,-2.0,27.85,11111222 
TABS,ioos:station:wmo:42044:1,2001-07-01T05:30:00Z,26.1914,-97.0507,-2.0,27.72,11111222 
TABS,ioos:station:wmo:42044:1,2001-07-01T06:00:00Z,26.1914,-97.0507,-2.0,27.61,11111222 
TABS,ioos:station:wmo:42044:1,2001-07-01T06:30:00Z,26.1914,-97.0507,-2.0,27.37,11111222 
TABS,ioos:station:wmo:42044:1,2001-07-01T07:00:00Z,26.1914,-97.0507,-2.0,27.16,11111222 
TABS,ioos:station:wmo:42044:1,2001-07-01T07:30:00Z,26.1914,-97.0507,-2.0,27.08,11111222 
TABS,ioos:station:wmo:42044:1,2001-07-01T08:00:00Z,26.1914,-97.0507,-2.0,26.91,11111222 
TABS,ioos:station:wmo:42044:1,2001-07-01T08:30:00Z,26.1914,-97.0507,-2.0,26.92,11111222 
TABS,ioos:station:wmo:42044:1,2001-07-01T09:00:00Z,26.1914,-97.0507,-2.0,26.81,11111222 
TABS,ioos:station:wmo:42044:1,2001-07-01T09:30:00Z,26.1914,-97.0507,-2.0,26.73,11111222 
TABS,ioos:station:wmo:42044:1,2001-07-01T10:00:00Z,26.1914,-97.0507,-2.0,26.63,11111222 
TABS,ioos:station:wmo:42044:1,2001-07-01T10:30:00Z,26.1914,-97.0507,-2.0,26.5,11111222 
TABS,ioos:station:wmo:42044:1,2001-07-01T11:00:00Z,26.1914,-97.0507,-2.0,26.21,11111222 
TABS,ioos:station:wmo:42044:1,2001-07-01T11:30:00Z,26.1914,-97.0507,-2.0,25.97,11111222 
TABS,ioos:station:wmo:42044:1,2001-07-01T12:00:00Z,26.1914,-97.0507,-2.0,25.94,11111222 
TABS,ioos:station:wmo:42044:1,2001-07-01T12:30:00Z,26.1914,-97.0507,-2.0,25.87,11111222 
TABS,ioos:station:wmo:42044:1,2001-07-01T13:00:00Z,26.1914,-97.0507,-2.0,25.79,11111222 
TABS,ioos:station:wmo:42044:1,2001-07-01T13:30:00Z,26.1914,-97.0507,-2.0,25.73,11111222 
TABS,ioos:station:wmo:42044:1,2001-07-01T14:00:00Z,26.1914,-97.0507,-2.0,25.73,11111222 
TABS,ioos:station:wmo:42044:1,2001-07-01T14:30:00Z,26.1914,-97.0507,-2.0,25.71,11111222 
TABS,ioos:station:wmo:42044:1,2001-07-01T15:00:00Z,26.1914,-97.0507,-2.0,25.68,11111222 
TABS,ioos:station:wmo:42044:1,2001-07-01T15:30:00Z,26.1914,-97.0507,-2.0,25.63,11111222 
TABS,ioos:station:wmo:42044:1,2001-07-01T16:00:00Z,26.1914,-97.0507,-2.0,25.58,11111222 
TABS,ioos:station:wmo:42044:1,2001-07-01T16:30:00Z,26.1914,-97.0507,-2.0,25.46,11111222 
TABS,ioos:station:wmo:42044:1,2001-07-01T17:00:00Z,26.1914,-97.0507,-2.0,25.4,11111222 
TABS,ioos:station:wmo:42044:1,2001-07-01T17:30:00Z,26.1914,-97.0507,-2.0,25.41,11111222 
TABS,ioos:station:wmo:42044:1,2001-07-01T18:00:00Z,26.1914,-97.0507,-2.0,25.42,11111222 
TABS,ioos:station:wmo:42044:1,2001-07-01T18:30:00Z,26.1914,-97.0507,-2.0,25.4,11111222 
TABS,ioos:station:wmo:42044:1,2001-07-01T19:00:00Z,26.1914,-97.0507,-2.0,25.53,11111222 
TABS,ioos:station:wmo:42044:1,2001-07-01T19:30:00Z,26.1914,-97.0507,-2.0,25.53,11111222 
TABS,ioos:station:wmo:42044:1,2001-07-01T20:00:00Z,26.1914,-97.0507,-2.0,25.6,11111222 
TABS,ioos:station:wmo:42044:1,2001-07-01T20:30:00Z,26.1914,-97.0507,-2.0,25.64,11111222 
TABS,ioos:station:wmo:42044:1,2001-07-01T21:00:00Z,26.1914,-97.0507,-2.0,25.67,11111222 
TABS,ioos:station:wmo:42044:1,2001-07-01T21:30:00Z,26.1914,-97.0507,-2.0,25.68,11111222 
TABS,ioos:station:wmo:42044:1,2001-07-01T22:00:00Z,26.1914,-97.0507,-2.0,25.72,11111222 
TABS,ioos:station:wmo:42044:1,2001-07-01T22:30:00Z,26.1914,-97.0507,-2.0,25.78,11111222 
TABS,ioos:station:wmo:42044:1,2001-07-01T23:00:00Z,26.1914,-97.0507,-2.0,25.77,11111222 
TABS,ioos:station:wmo:42044:1,2001-07-01T23:30:00Z,26.1914,-97.0507,-2.0,25.77,11111222 
TABS,ioos:station:wmo:42044:1,2001-07-02T00:00:00Z,26.1914,-97.0507,-2.0,25.73,11111222 
TABS,ioos:station:wmo:42044:1,2001-07-02T00:30:00Z,26.1914,-97.0507,-2.0,25.67,11111222 
TABS,ioos:station:wmo:42044:1,2001-07-02T01:00:00Z,26.1914,-97.0507,-2.0,25.57,11111222 
TABS,ioos:station:wmo:42044:1,2001-07-02T01:30:00Z,26.1914,-97.0507,-2.0,25.51,11111222 
TABS,ioos:station:wmo:42044:1,2001-07-02T02:00:00Z,26.1914,-97.0507,-2.0,25.42,11111222 
TABS,ioos:station:wmo:42044:1,2001-07-02T02:30:00Z,26.1914,-97.0507,-2.0,25.32,11111222 
TABS,ioos:station:wmo:42044:1,2001-07-02T03:00:00Z,26.1914,-97.0507,-2.0,25.26,11111222 
TABS,ioos:station:wmo:42044:1,2001-07-02T03:30:00Z,26.1914,-97.0507,-2.0,25.19,11111222 
TABS,ioos:station:wmo:42044:1,2001-07-02T04:00:00Z,26.1914,-97.0507,-2.0,25.1,11111222 
TABS,ioos:station:wmo:42044:1,2001-07-02T04:30:00Z,26.1914,-97.0507,-2.0,25.06,11111222 
TABS,ioos:station:wmo:42044:1,2001-07-02T05:00:00Z,26.1914,-97.0507,-2.0,25.01,11111222 
TABS,ioos:station:wmo:42044:1,2001-07-02T05:30:00Z,26.1914,-97.0507,-2.0,25.04,11111222 
TABS,ioos:station:wmo:42044:1,2001-07-02T06:00:00Z,26.1914,-97.0507,-2.0,25.03,11111222 
TABS,ioos:station:wmo:42044:1,2001-07-02T06:30:00Z,26.1914,-97.0507,-2.0,24.99,11111222 
TABS,ioos:station:wmo:42044:1,2001-07-02T07:00:00Z,26.1914,-97.0507,-2.0,25.23,11111222 
TABS,ioos:station:wmo:42044:1,2001-07-02T07:30:00Z,26.1914,-97.0507,-2.0,25.45,11111222 
TABS,ioos:station:wmo:42044:1,2001-07-02T08:00:00Z,26.1914,-97.0507,-2.0,25.57,11111222 
TABS,ioos:station:wmo:42044:1,2001-07-02T08:30:00Z,26.1914,-97.0507,-2.0,25.64,11111222 
TABS,ioos:station:wmo:42044:1,2001-07-02T09:00:00Z,26.1914,-97.0507,-2.0,25.76,11111222 
TABS,ioos:station:wmo:42044:1,2001-07-02T09:30:00Z,26.1914,-97.0507,-2.0,25.81,11111222 
TABS,ioos:station:wmo:42044:1,2001-07-02T10:00:00Z,26.1914,-97.0507,-2.0,25.83,11111222 
TABS,ioos:station:wmo:42044:1,2001-07-02T10:30:00Z,26.1914,-97.0507,-2.0,25.94,11111222 
TABS,ioos:station:wmo:42044:1,2001-07-02T11:00:00Z,26.1914,-97.0507,-2.0,26.02,11111222 
TABS,ioos:station:wmo:42044:1,2001-07-02T11:30:00Z,26.1914,-97.0507,-2.0,26.4,11111222 
TABS,ioos:station:wmo:42044:1,2001-07-02T12:00:00Z,26.1914,-97.0507,-2.0,26.55,11111222 
TABS,ioos:station:wmo:42044:1,2001-07-02T12:30:00Z,26.1914,-97.0507,-2.0,26.7,11111222 
TABS,ioos:station:wmo:42044:1,2001-07-02T13:00:00Z,26.1914,-97.0507,-2.0,26.72,11111222 
TABS,ioos:station:wmo:42044:1,2001-07-02T13:30:00Z,26.1914,-97.0507,-2.0,26.76,11111222 
TABS,ioos:station:wmo:42044:1,2001-07-02T14:00:00Z,26.1914,-97.0507,-2.0,26.78,11111222 
TABS,ioos:station:wmo:42044:1,2001-07-02T14:30:00Z,26.1914,-97.0507,-2.0,26.85,11111222 
TABS,ioos:station:wmo:42044:1,2001-07-02T15:00:00Z,26.1914,-97.0507,-2.0,26.89,11111222 
TABS,ioos:station:wmo:42044:1,2001-07-02T15:30:00Z,26.1914,-97.0507,-2.0,26.92,11111222 
TABS,ioos:station:wmo:42044:1,2001-07-02T16:00:00Z,26.1914,-97.0507,-2.0,26.97,11111222 
TABS,ioos:station:wmo:42044:1,2001-07-02T16:30:00Z,26.1914,-97.0507,-2.0,26.98,11111222 
TABS,ioos:station:wmo:42044:1,2001-07-02T17:00:00Z,26.1914,-97.0507,-2.0,26.97,11111222 
TABS,ioos:station:wmo:42044:1,2001-07-02T17:30:00Z,26.1914,-97.0507,-2.0,26.95,11111222 
TABS,ioos:station:wmo:42044:1,2001-07-02T18:00:00Z,26.1914,-97.0507,-2.0,26.92,11111222 
TABS,ioos:station:wmo:42044:1,2001-07-02T18:30:00Z,26.1914,-97.0507,-2.0,26.81,11111222 
TABS,ioos:station:wmo:42044:1,2001-07-02T19:00:00Z,26.1914,-97.0507,-2.0,26.71,11111222 
TABS,ioos:station:wmo:42044:1,2001-07-02T19:30:00Z,26.1914,-97.0507,-2.0,26.65,11111222 
TABS,ioos:station:wmo:42044:1,2001-07-02T20:00:00Z,26.1914,-97.0507,-2.0,26.6,11111222 
TABS,ioos:station:wmo:42044:1,2001-07-02T20:30:00Z,26.1914,-97.0507,-2.0,26.59,11111222 
TABS,ioos:station:wmo:42044:1,2001-07-02T21:00:00Z,26.1914,-97.0507,-2.0,26.56,11111222 
TABS,ioos:station:wmo:42044:1,2001-07-02T21:30:00Z,26.1914,-97.0507,-2.0,26.52,11111222 
TABS,ioos:station:wmo:42044:1,2001-07-02T22:00:00Z,26.1914,-97.0507,-2.0,26.47,11111222 
TABS,ioos:station:wmo:42044:1,2001-07-02T22:30:00Z,26.1914,-97.0507,-2.0,26.43,11111222 
TABS,ioos:station:wmo:42044:1,2001-07-02T23:00:00Z,26.1914,-97.0507,-2.0,26.43,11111222 
TABS,ioos:station:wmo:42044:1,2001-07-02T23:30:00Z,26.1914,-97.0507,-2.0,26.42,11111222 
TABS,ioos:station:wmo:42044:1,2001-07-03T00:00:00Z,26.1914,-97.0507,-2.0,26.41,11111222 
TABS,ioos:station:wmo:42044:1,2001-07-03T00:30:00Z,26.1914,-97.0507,-2.0,26.37,11111222 
TABS,ioos:station:wmo:42044:1,2001-07-03T01:00:00Z,26.1914,-97.0507,-2.0,26.32,11111222 
TABS,ioos:station:wmo:42044:1,2001-07-03T01:30:00Z,26.1914,-97.0507,-2.0,26.3,11111222 
TABS,ioos:station:wmo:42044:1,2001-07-03T02:00:00Z,26.1914,-97.0507,-2.0,26.26,11111222 
TABS,ioos:station:wmo:42044:1,2001-07-03T02:30:00Z,26.1914,-97.0507,-2.0,26.23,11111222 
TABS,ioos:station:wmo:42044:1,2001-07-03T03:00:00Z,26.1914,-97.0507,-2.0,26.22,11111222 
TABS,ioos:station:wmo:42044:1,2001-07-03T03:30:00Z,26.1914,-97.0507,-2.0,26.21,11111222 
TABS,ioos:station:wmo:42044:1,2001-07-03T04:00:00Z,26.1914,-97.0507,-2.0,26.21,11111222 
TABS,ioos:station:wmo:42044:1,2001-07-03T04:30:00Z,26.1914,-97.0507,-2.0,26.21,11111222 
TABS,ioos:station:wmo:42044:1,2001-07-03T05:00:00Z,26.1914,-97.0507,-2.0,26.21,11111222 
TABS,ioos:station:wmo:42044:1,2001-07-03T05:30:00Z,26.1914,-97.0507,-2.0,26.22,11111222 
TABS,ioos:station:wmo:42044:1,2001-07-03T06:00:00Z,26.1914,-97.0507,-2.0,26.24,11111222 
TABS,ioos:station:wmo:42044:1,2001-07-03T06:30:00Z,26.1914,-97.0507,-2.0,26.26,11111222 
TABS,ioos:station:wmo:42044:1,2001-07-03T07:00:00Z,26.1914,-97.0507,-2.0,26.27,11111222 
TABS,ioos:station:wmo:42044:1,2001-07-03T07:30:00Z,26.1914,-97.0507,-2.0,26.28,11111222 
TABS,ioos:station:wmo:42044:1,2001-07-03T08:00:00Z,26.1914,-97.0507,-2.0,26.3,11111222 
TABS,ioos:station:wmo:42044:1,2001-07-03T08:30:00Z,26.1914,-97.0507,-2.0,26.3,11111222 
TABS,ioos:station:wmo:42044:1,2001-07-03T09:00:00Z,26.1914,-97.0507,-2.0,26.28,11111222 
TABS,ioos:station:wmo:42044:1,2001-07-03T09:30:00Z,26.1914,-97.0507,-2.0,26.27,11111222 
TABS,ioos:station:wmo:42044:1,2001-07-03T10:00:00Z,26.1914,-97.0507,-2.0,26.23,11111222 
TABS,ioos:station:wmo:42044:1,2001-07-03T10:30:00Z,26.1914,-97.0507,-2.0,26.16,11111222 
TABS,ioos:station:wmo:42044:1,2001-07-03T11:00:00Z,26.1914,-97.0507,-2.0,26.14,11111222 
TABS,ioos:station:wmo:42044:1,2001-07-03T11:30:00Z,26.1914,-97.0507,-2.0,26.12,11111222 
TABS,ioos:station:wmo:42044:1,2001-07-03T12:00:00Z,26.1914,-97.0507,-2.0,26.11,11111222 
TABS,ioos:station:wmo:42044:1,2001-07-03T12:30:00Z,26.1914,-97.0507,-2.0,26.12,11111222 
TABS,ioos:station:wmo:42044:1,2001-07-03T13:00:00Z,26.1914,-97.0507,-2.0,26.11,11111222 
TABS,ioos:station:wmo:42044:1,2001-07-03T13:30:00Z,26.1914,-97.0507,-2.0,26.11,11111222 
TABS,ioos:station:wmo:42044:1,2001-07-03T14:00:00Z,26.1914,-97.0507,-2.0,26.11,11111222 
TABS,ioos:station:wmo:42044:1,2001-07-03T14:30:00Z,26.1914,-97.0507,-2.0,26.14,11111222 
TABS,ioos:station:wmo:42044:1,2001-07-03T15:00:00Z,26.1914,-97.0507,-2.0,26.18,11111222 
TABS,ioos:station:wmo:42044:1,2001-07-03T15:30:00Z,26.1914,-97.0507,-2.0,26.2,11111222 
TABS,ioos:station:wmo:42044:1,2001-07-03T16:00:00Z,26.1914,-97.0507,-2.0,26.21,11111222 
TABS,ioos:station:wmo:42044:1,2001-07-03T16:30:00Z,26.1914,-97.0507,-2.0,26.23,11111222 
TABS,ioos:station:wmo:42044:1,2001-07-03T17:00:00Z,26.1914,-97.0507,-2.0,26.25,11111222 
TABS,ioos:station:wmo:42044:1,2001-07-03T17:30:00Z,26.1914,-97.0507,-2.0,26.27,11111222 
TABS,ioos:station:wmo:42044:1,2001-07-03T18:00:00Z,26.1914,-97.0507,-2.0,26.34,11111222 
TABS,ioos:station:wmo:42044:1,2001-07-03T18:30:00Z,26.1914,-97.0507,-2.0,26.28,11111222 
TABS,ioos:station:wmo:42044:1,2001-07-03T19:00:00Z,26.1914,-97.0507,-2.0,26.21,11111222 
TABS,ioos:station:wmo:42044:1,2001-07-03T19:30:00Z,26.1914,-97.0507,-2.0,26.18,11111222 
TABS,ioos:station:wmo:42044:1,2001-07-03T20:00:00Z,26.1914,-97.0507,-2.0,26.17,11111222 
TABS,ioos:station:wmo:42044:1,2001-07-03T20:30:00Z,26.1914,-97.0507,-2.0,26.22,11111222 
TABS,ioos:station:wmo:42044:1,2001-07-03T21:00:00Z,26.1914,-97.0507,-2.0,26.23,11111222 
TABS,ioos:station:wmo:42044:1,2001-07-03T21:30:00Z,26.1914,-97.0507,-2.0,26.24,11111222 
TABS,ioos:station:wmo:42044:1,2001-07-03T22:00:00Z,26.1914,-97.0507,-2.0,26.25,11111222 
TABS,ioos:station:wmo:42044:1,2001-07-03T22:30:00Z,26.1914,-97.0507,-2.0,26.26,11111222 
TABS,ioos:station:wmo:42044:1,2001-07-03T23:00:00Z,26.1914,-97.0507,-2.0,26.28,11111222 
TABS,ioos:station:wmo:42044:1,2001-07-03T23:30:00Z,26.1914,-97.0507,-2.0,26.3,11111222 
TABS,ioos:station:wmo:42044:1,2001-07-04T00:00:00Z,26.1914,-97.0507,-2.0,26.29,11111222 
TABS,ioos:station:wmo:42044:1,2001-07-04T00:30:00Z,26.1914,-97.0507,-2.0,26.25,11111222 
TABS,ioos:station:wmo:42044:1,2001-07-04T01:00:00Z,26.1914,-97.0507,-2.0,26.23,11111222 
TABS,ioos:station:wmo:42044:1,2001-07-04T01:30:00Z,26.1914,-97.0507,-2.0,26.21,11111222 
TABS,ioos:station:wmo:42044:1,2001-07-04T02:00:00Z,26.1914,-97.0507,-2.0,26.18,11111222 
TABS,ioos:station:wmo:42044:1,2001-07-04T02:30:00Z,26.1914,-97.0507,-2.0,26.15,11111222 
TABS,ioos:station:wmo:42044:1,2001-07-04T03:00:00Z,26.1914,-97.0507,-2.0,26.11,11111222 
TABS,ioos:station:wmo:42044:1,2001-07-04T03:30:00Z,26.1914,-97.0507,-2.0,26.06,11111222 
TABS,ioos:station:wmo:42044:1,2001-07-04T04:00:00Z,26.1914,-97.0507,-2.0,25.94,11111222 
TABS,ioos:station:wmo:42044:1,2001-07-04T04:30:00Z,26.1914,-97.0507,-2.0,25.85,11111222 
TABS,ioos:station:wmo:42044:1,2001-07-04T05:00:00Z,26.1914,-97.0507,-2.0,25.76,11111222 
TABS,ioos:station:wmo:42044:1,2001-07-04T05:30:00Z,26.1914,-97.0507,-2.0,25.71,11111222 
TABS,ioos:station:wmo:42044:1,2001-07-04T06:00:00Z,26.1914,-97.0507,-2.0,25.77,11111222 
TABS,ioos:station:wmo:42044:1,2001-07-04T06:30:00Z,26.1914,-97.0507,-2.0,25.89,11111222 
TABS,ioos:station:wmo:42044:1,2001-07-04T07:00:00Z,26.1914,-97.0507,-2.0,25.93,11111222 
TABS,ioos:station:wmo:42044:1,2001-07-04T07:30:00Z,26.1914,-97.0507,-2.0,25.94,11111222 
TABS,ioos:station:wmo:42044:1,2001-07-04T08:00:00Z,26.1914,-97.0507,-2.0,25.96,11111222 
TABS,ioos:station:wmo:42044:1,2001-07-04T08:30:00Z,26.1914,-97.0507,-2.0,26.0,11111222 
TABS,ioos:station:wmo:42044:1,2001-07-04T09:00:00Z,26.1914,-97.0507,-2.0,26.02,11111222 
TABS,ioos:station:wmo:42044:1,2001-07-04T09:30:00Z,26.1914,-97.0507,-2.0,26.03,11111222 
TABS,ioos:station:wmo:42044:1,2001-07-04T10:00:00Z,26.1914,-97.0507,-2.0,26.04,11111222 
TABS,ioos:station:wmo:42044:1,2001-07-04T10:30:00Z,26.1914,-97.0507,-2.0,26.03,11111222 
TABS,ioos:station:wmo:42044:1,2001-07-04T11:00:00Z,26.1914,-97.0507,-2.0,26.02,11111222 
TABS,ioos:station:wmo:42044:1,2001-07-04T11:30:00Z,26.1914,-97.0507,-2.0,26.01,11111222 
TABS,ioos:station:wmo:42044:1,2001-07-04T12:00:00Z,26.1914,-97.0507,-2.0,26.02,11111222 
TABS,ioos:station:wmo:42044:1,2001-07-04T12:30:00Z,26.1914,-97.0507,-2.0,26.01,11111222 
TABS,ioos:station:wmo:42044:1,2001-07-04T13:00:00Z,26.1914,-97.0507,-2.0,26.01,11111222 
TABS,ioos:station:wmo:42044:1,2001-07-04T13:30:00Z,26.1914,-97.0507,-2.0,26.01,11111222 
TABS,ioos:station:wmo:42044:1,2001-07-04T14:00:00Z,26.1914,-97.0507,-2.0,26.0,11111222 
TABS,ioos:station:wmo:42044:1,2001-07-04T14:30:00Z,26.1914,-97.0507,-2.0,25.97,11111222 
TABS,ioos:station:wmo:42044:1,2001-07-04T15:00:00Z,26.1914,-97.0507,-2.0,25.96,11111222 
TABS,ioos:station:wmo:42044:1,2001-07-04T15:30:00Z,26.1914,-97.0507,-2.0,25.97,11111222 
TABS,ioos:station:wmo:42044:1,2001-07-04T16:00:00Z,26.1914,-97.0507,-2.0,25.97,11111222 
TABS,ioos:station:wmo:42044:1,2001-07-04T16:30:00Z,26.1914,-97.0507,-2.0,26.1,11111222 
TABS,ioos:station:wmo:42044:1,2001-07-04T17:00:00Z,26.1914,-97.0507,-2.0,26.06,11111222 
TABS,ioos:station:wmo:42044:1,2001-07-04T17:30:00Z,26.1914,-97.0507,-2.0,26.22,11111222 
TABS,ioos:station:wmo:42044:1,2001-07-04T18:00:00Z,26.1914,-97.0507,-2.0,26.43,11111222 
TABS,ioos:station:wmo:42044:1,2001-07-04T18:30:00Z,26.1914,-97.0507,-2.0,26.48,11111222 
TABS,ioos:station:wmo:42044:1,2001-07-04T19:00:00Z,26.1914,-97.0507,-2.0,26.28,11111222 
TABS,ioos:station:wmo:42044:1,2001-07-04T19:30:00Z,26.1914,-97.0507,-2.0,26.42,11111222 
TABS,ioos:station:wmo:42044:1,2001-07-04T20:00:00Z,26.1914,-97.0507,-2.0,26.43,11111222 
TABS,ioos:station:wmo:42044:1,2001-07-04T20:30:00Z,26.1914,-97.0507,-2.0,26.64,11111222 
TABS,ioos:station:wmo:42044:1,2001-07-04T21:00:00Z,26.1914,-97.0507,-2.0,26.82,11111222 
TABS,ioos:station:wmo:42044:1,2001-07-04T21:30:00Z,26.1914,-97.0507,-2.0,27.0,11111222 
TABS,ioos:station:wmo:42044:1,2001-07-04T22:00:00Z,26.1914,-97.0507,-2.0,27.03,11111222 
TABS,ioos:station:wmo:42044:1,2001-07-04T22:30:00Z,26.1914,-97.0507,-2.0,27.1,11111222 
TABS,ioos:station:wmo:42044:1,2001-07-04T23:00:00Z,26.1914,-97.0507,-2.0,27.03,11111222 
TABS,ioos:station:wmo:42044:1,2001-07-04T23:30:00Z,26.1914,-97.0507,-2.0,26.97,11111222 
TABS,ioos:station:wmo:42044:1,2001-07-05T00:00:00Z,26.1914,-97.0507,-2.0,27.0,11111222 
TABS,ioos:station:wmo:42044:1,2001-07-05T00:30:00Z,26.1914,-97.0507,-2.0,27.04,11111222 
TABS,ioos:station:wmo:42044:1,2001-07-05T01:00:00Z,26.1914,-97.0507,-2.0,27.02,11111222 
TABS,ioos:station:wmo:42044:1,2001-07-05T01:30:00Z,26.1914,-97.0507,-2.0,26.99,11111222 
TABS,ioos:station:wmo:42044:1,2001-07-05T02:00:00Z,26.1914,-97.0507,-2.0,26.96,11111222 
TABS,ioos:station:wmo:42044:1,2001-07-05T02:30:00Z,26.1914,-97.0507,-2.0,26.9,11111222 
TABS,ioos:station:wmo:42044:1,2001-07-05T03:00:00Z,26.1914,-97.0507,-2.0,26.91,11111222 
TABS,ioos:station:wmo:42044:1,2001-07-05T03:30:00Z,26.1914,-97.0507,-2.0,26.83,11111222 
TABS,ioos:station:wmo:42044:1,2001-07-05T04:00:00Z,26.1914,-97.0507,-2.0,26.83,11111222 
TABS,ioos:station:wmo:42044:1,2001-07-05T04:30:00Z,26.1914,-97.0507,-2.0,26.8,11111222 
TABS,ioos:station:wmo:42044:1,2001-07-05T05:00:00Z,26.1914,-97.0507,-2.0,26.73,11111222 
TABS,ioos:station:wmo:42044:1,2001-07-05T05:30:00Z,26.1914,-97.0507,-2.0,26.72,11111222 
TABS,ioos:station:wmo:42044:1,2001-07-05T06:00:00Z,26.1914,-97.0507,-2.0,26.7,11111222 
TABS,ioos:station:wmo:42044:1,2001-07-05T06:30:00Z,26.1914,-97.0507,-2.0,26.67,11111222 
TABS,ioos:station:wmo:42044:1,2001-07-05T07:00:00Z,26.1914,-97.0507,-2.0,26.62,11111222 
TABS,ioos:station:wmo:42044:1,2001-07-05T07:30:00Z,26.1914,-97.0507,-2.0,26.58,11111222 
TABS,ioos:station:wmo:42044:1,2001-07-05T08:00:00Z,26.1914,-97.0507,-2.0,26.52,11111222 
TABS,ioos:station:wmo:42044:1,2001-07-05T08:30:00Z,26.1914,-97.0507,-2.0,26.5,11111222 
TABS,ioos:station:wmo:42044:1,2001-07-05T09:00:00Z,26.1914,-97.0507,-2.0,26.48,11111222 
TABS,ioos:station:wmo:42044:1,2001-07-05T09:30:00Z,26.1914,-97.0507,-2.0,26.47,11111222 
TABS,ioos:station:wmo:42044:1,2001-07-05T10:00:00Z,26.1914,-97.0507,-2.0,26.43,11111222 
TABS,ioos:station:wmo:42044:1,2001-07-05T10:30:00Z,26.1914,-97.0507,-2.0,26.4,11111222 
TABS,ioos:station:wmo:42044:1,2001-07-05T11:00:00Z,26.1914,-97.0507,-2.0,26.37,11111222 
TABS,ioos:station:wmo:42044:1,2001-07-05T11:30:00Z,26.1914,-97.0507,-2.0,26.34,11111222 
TABS,ioos:station:wmo:42044:1,2001-07-05T12:00:00Z,26.1914,-97.0507,-2.0,26.33,11111222 
TABS,ioos:station:wmo:42044:1,2001-07-05T12:30:00Z,26.1914,-97.0507,-2.0,26.32,11111222 
TABS,ioos:station:wmo:42044:1,2001-07-05T13:00:00Z,26.1914,-97.0507,-2.0,26.3,11111222 
TABS,ioos:station:wmo:42044:1,2001-07-05T13:30:00Z,26.1914,-97.0507,-2.0,26.31,11111222 
TABS,ioos:station:wmo:42044:1,2001-07-05T14:00:00Z,26.1914,-97.0507,-2.0,26.33,11111222 
TABS,ioos:station:wmo:42044:1,2001-07-05T14:30:00Z,26.1914,-97.0507,-2.0,26.38,11111222 
TABS,ioos:station:wmo:42044:1,2001-07-05T15:00:00Z,26.1914,-97.0507,-2.0,26.44,11111222 
TABS,ioos:station:wmo:42044:1,2001-07-05T15:30:00Z,26.1914,-97.0507,-2.0,26.51,11111222 
TABS,ioos:station:wmo:42044:1,2001-07-05T16:00:00Z,26.1914,-97.0507,-2.0,26.55,11111222 
TABS,ioos:station:wmo:42044:1,2001-07-05T16:30:00Z,26.1914,-97.0507,-2.0,26.63,11111222 
TABS,ioos:station:wmo:42044:1,2001-07-05T17:00:00Z,26.1914,-97.0507,-2.0,27.02,11111222 
TABS,ioos:station:wmo:42044:1,2001-07-05T17:30:00Z,26.1914,-97.0507,-2.0,27.22,11111222 
TABS,ioos:station:wmo:42044:1,2001-07-05T18:00:00Z,26.1914,-97.0507,-2.0,27.27,11111222 
TABS,ioos:station:wmo:42044:1,2001-07-05T18:30:00Z,26.1914,-97.0507,-2.0,27.16,11111222 
TABS,ioos:station:wmo:42044:1,2001-07-05T19:00:00Z,26.1914,-97.0507,-2.0,28.11,11111222 
TABS,ioos:station:wmo:42044:1,2001-07-05T19:30:00Z,26.1914,-97.0507,-2.0,28.36,11111222 
TABS,ioos:station:wmo:42044:1,2001-07-05T20:00:00Z,26.1914,-97.0507,-2.0,28.45,11111222 
TABS,ioos:station:wmo:42044:1,2001-07-05T20:30:00Z,26.1914,-97.0507,-2.0,28.52,11111222 
TABS,ioos:station:wmo:42044:1,2001-07-05T21:00:00Z,26.1914,-97.0507,-2.0,28.48,11111222 
TABS,ioos:station:wmo:42044:1,2001-07-05T21:30:00Z,26.1914,-97.0507,-2.0,28.46,11111222 
TABS,ioos:station:wmo:42044:1,2001-07-05T22:00:00Z,26.1914,-97.0507,-2.0,28.43,11111222 
TABS,ioos:station:wmo:42044:1,2001-07-05T22:30:00Z,26.1914,-97.0507,-2.0,28.41,11111222 
TABS,ioos:station:wmo:42044:1,2001-07-05T23:00:00Z,26.1914,-97.0507,-2.0,28.41,11111222 
TABS,ioos:station:wmo:42044:1,2001-07-05T23:30:00Z,26.1914,-97.0507,-2.0,28.39,11111222 
TABS,ioos:station:wmo:42044:1,2001-07-06T00:00:00Z,26.1914,-97.0507,-2.0,28.38,11111222 
TABS,ioos:station:wmo:42044:1,2001-07-06T00:30:00Z,26.1914,-97.0507,-2.0,28.36,11111222 
TABS,ioos:station:wmo:42044:1,2001-07-06T01:00:00Z,26.1914,-97.0507,-2.0,28.35,11111222 
TABS,ioos:station:wmo:42044:1,2001-07-06T01:30:00Z,26.1914,-97.0507,-2.0,28.33,11111222 
TABS,ioos:station:wmo:42044:1,2001-07-06T02:00:00Z,26.1914,-97.0507,-2.0,28.32,11111222 
TABS,ioos:station:wmo:42044:1,2001-07-06T02:30:00Z,26.1914,-97.0507,-2.0,28.27,11111222 
TABS,ioos:station:wmo:42044:1,2001-07-06T03:00:00Z,26.1914,-97.0507,-2.0,28.25,11111222 
TABS,ioos:station:wmo:42044:1,2001-07-06T03:30:00Z,26.1914,-97.0507,-2.0,28.24,11111222 
TABS,ioos:station:wmo:42044:1,2001-07-06T04:00:00Z,26.1914,-97.0507,-2.0,28.21,11111222 
TABS,ioos:station:wmo:42044:1,2001-07-06T04:30:00Z,26.1914,-97.0507,-2.0,28.17,11111222 
TABS,ioos:station:wmo:42044:1,2001-07-06T05:00:00Z,26.1914,-97.0507,-2.0,28.15,11111222 
TABS,ioos:station:wmo:42044:1,2001-07-06T05:30:00Z,26.1914,-97.0507,-2.0,28.14,11111222 
TABS,ioos:station:wmo:42044:1,2001-07-06T06:00:00Z,26.1914,-97.0507,-2.0,28.12,11111222 
TABS,ioos:station:wmo:42044:1,2001-07-06T06:30:00Z,26.1914,-97.0507,-2.0,28.1,11111222 
TABS,ioos:station:wmo:42044:1,2001-07-06T07:00:00Z,26.1914,-97.0507,-2.0,28.08,11111222 
TABS,ioos:station:wmo:42044:1,2001-07-06T07:30:00Z,26.1914,-97.0507,-2.0,28.06,11111222 
TABS,ioos:station:wmo:42044:1,2001-07-06T08:00:00Z,26.1914,-97.0507,-2.0,28.07,11111222 
TABS,ioos:station:wmo:42044:1,2001-07-06T08:30:00Z,26.1914,-97.0507,-2.0,28.06,11111222 
TABS,ioos:station:wmo:42044:1,2001-07-06T09:00:00Z,26.1914,-97.0507,-2.0,28.04,11111222 
TABS,ioos:station:wmo:42044:1,2001-07-06T09:30:00Z,26.1914,-97.0507,-2.0,28.02,11111222 
TABS,ioos:station:wmo:42044:1,2001-07-06T10:00:00Z,26.1914,-97.0507,-2.0,27.99,11111222 
TABS,ioos:station:wmo:42044:1,2001-07-06T10:30:00Z,26.1914,-97.0507,-2.0,27.97,11111222 
TABS,ioos:station:wmo:42044:1,2001-07-06T11:00:00Z,26.1914,-97.0507,-2.0,27.94,11111222 
TABS,ioos:station:wmo:42044:1,2001-07-06T11:30:00Z,26.1914,-97.0507,-2.0,27.91,11111222 
TABS,ioos:station:wmo:42044:1,2001-07-06T12:00:00Z,26.1914,-97.0507,-2.0,27.88,11111222 
TABS,ioos:station:wmo:42044:1,2001-07-06T12:30:00Z,26.1914,-97.0507,-2.0,27.87,11111222 
TABS,ioos:station:wmo:42044:1,2001-07-06T13:00:00Z,26.1914,-97.0507,-2.0,27.86,11111222 
TABS,ioos:station:wmo:42044:1,2001-07-06T13:30:00Z,26.1914,-97.0507,-2.0,27.85,11111222 
TABS,ioos:station:wmo:42044:1,2001-07-06T14:00:00Z,26.1914,-97.0507,-2.0,27.87,11111222 